Weather in Savkino

Russia / Saratov Oblast     52°26′18″N   45°41′03″E
temp.,
°C
wind,
m/s
gust,
m/s
humid.,
%
clouds,
%
prec.,
mm/h
press.,
hPa
HPBL,
m
8 march, mon
mon801:00−4sw101893100 0.8 1002948
04:00−3wsw101692100 1.6 10011039
07:00−4wsw6148477 0.3 1002505
10:00−5wsw5138363 0.3 1003643
13:00−2wsw7108251 0.0 10031113
16:00−2wsw7109476 0.3 1002814
19:00−5w5138699 0.4 1004610
22:00−9w499162 0.4 1008157
9 march, tue
tue901:00−13w34900 0.0 100928
04:00−16wnw12920 0.0 101020
07:00−17wnw11940 0.0 101120
10:00−13nw11910 0.0 101168
13:00−9nw238837 0.0 1011302
16:00−8wnw459267 0.1 1011444
19:00−11nw599499 0.1 1012238
22:00−13nw499592 0.1 1014256
10 march, wed
wed1001:00−17nw479886 0.0 1015111
04:00−19nw499882 0.1 1016156
07:00−21nw5109980 0.0 1018200
10:00−19nw599690 0.1 1019324
13:00−16nw6990100 0.0 1021623
16:00−16nw7988100 0.1 1022768
19:00−19nw51193100 0.1 1023373
22:00−22nnw51098100 0.1 1026262
11 march, thu
thu1101:00−26nnw489736 0.0 1027131
04:00−27nw479818 0.0 102995
07:00−27nnw46992 0.0 103092
10:00−23nnw47952 0.0 1031233
13:00−18nw479127 0.0 1031370
16:00−16nw589047 0.0 1031423
19:00−19wnw489666 0.0 1031134
22:00−20nw479741 0.0 1032132
12 march, fri
fri1201:00−21nnw359845 0.0 103384
04:00−21nnw349827 0.0 103430
07:00−22nnw34980 0.0 103430
10:00−17nnw23930 0.0 1035116
13:00−12nnw12830 0.0 1035226
16:00−10wnw22840 0.0 1035251
19:00−16wnw11930 0.0 103520
22:00−18sw12930 0.0 103720